Location: ??????????
(42.1626°N, 44.1160°E)
Time: 21:33:28
(UTC+00:00)

Cosmos 1354 Rocket - Pass Details

Date: 03 March 2021
Orbit: 765 x 782 km, 74.0° (Epoch: 18 April)

Event Time Altitude Azimuth Distance (km) Brightness Sun altitude
Rises 16:40:31 0° 337° (NNW) 3,247 7.7 -20.1°
Reaches altitude 10° 16:42:55 10° 334° (NNW) 2,314 6.9 -20.6°
Maximum altitude 16:48:06 64° 254° (WSW) 845 4.4 -21.5°
Enters shadow 16:53:02 11° 174° (S) 2,209 6.2 -22.4°
